Time,TemperatureF,DewpointF,PressureIn,WindDirection,WindDirectionDegrees,WindSpeedMPH,WindSpeedGustMPH,Humidity,HourlyPrecipIn,Conditions,Clouds,dailyrainin,SoftwareType,DateUTC
2013-01-21 00:04:00,27.4,16.0,30.17,North,0,2.5,3.4,62,0.00,,,0.00,WUHU216HW,2013-01-21 06:04:00,
2013-01-21 00:09:00,27.4,16.0,30.17,North,0,1.7,3.1,62,0.00,,,0.00,WUHU216HW,2013-01-21 06:09:00,
2013-01-21 00:14:00,27.2,15.8,30.16,NNE,18,2.2,4.0,62,0.00,,,0.00,WUHU216HW,2013-01-21 06:14:00,
2013-01-21 00:19:00,27.0,15.7,30.17,NNE,23,1.1,4.0,62,0.00,,,0.00,WUHU216HW,2013-01-21 06:19:00,
2013-01-21 00:24:00,27.0,15.7,30.16,NNE,23,2.5,3.1,62,0.00,,,0.00,WUHU216HW,2013-01-21 06:24:00,
2013-01-21 00:30:00,26.8,15.5,30.16,North,354,1.4,3.1,62,0.00,,,0.00,WUHU216HW,2013-01-21 06:30:00,
2013-01-21 00:35:00,26.6,15.3,30.16,North,0,3.1,3.1,62,0.00,,,0.00,WUHU216HW,2013-01-21 06:35:00,
2013-01-21 00:40:00,26.5,15.1,30.16,NNW,346,0.6,3.1,62,0.00,,,0.00,WUHU216HW,2013-01-21 06:40:00,
2013-01-21 00:45:00,26.5,15.1,30.17,North,3,3.1,5.4,62,0.00,,,0.00,WUHU216HW,2013-01-21 06:45:00,
2013-01-21 00:50:00,26.3,15.3,30.17,NNW,338,2.5,5.4,63,0.00,,,0.00,WUHU216HW,2013-01-21 06:50:00,
2013-01-21 00:55:00,26.3,15.7,30.17,North,356,2.3,4.3,64,0.00,,,0.00,WUHU216HW,2013-01-21 06:55:00,
2013-01-21 01:00:00,26.3,15.7,30.17,NNW,346,0.9,4.3,64,0.00,,,0.00,WUHU216HW,2013-01-21 07:00:00,
2013-01-21 01:05:00,25.9,16.0,30.18,North,354,1.6,2.9,66,0.00,,,0.00,WUHU216HW,2013-01-21 07:05:00,
2013-01-21 01:10:00,25.7,15.8,30.19,North,354,1.5,2.7,66,0.00,,,0.00,WUHU216HW,2013-01-21 07:10:00,
2013-01-21 01:15:00,25.6,15.4,30.18,NNW,344,3.0,4.5,65,0.00,,,0.00,WUHU216HW,2013-01-21 07:15:00,
2013-01-21 01:20:00,25.6,15.7,30.19,North,0,1.1,4.5,66,0.00,,,0.00,WUHU216HW,2013-01-21 07:20:00,
2013-01-21 01:25:00,25.2,15.4,30.18,NW,315,2.9,4.0,66,0.00,,,0.00,WUHU216HW,2013-01-21 07:25:00,
2013-01-21 01:30:00,25.0,15.2,30.18,NNW,346,2.9,4.5,66,0.00,,,0.00,WUHU216HW,2013-01-21 07:30:00,
2013-01-21 01:35:00,24.8,15.0,30.18,NNE,23,4.7,4.9,66,0.00,,,0.00,WUHU216HW,2013-01-21 07:35:00,
2013-01-21 01:40:00,24.8,15.0,30.18,North,7,2.9,6.9,66,0.00,,,0.00,WUHU216HW,2013-01-21 07:40:00,
2013-01-21 01:45:00,24.8,15.0,30.19,North,358,2.1,6.9,66,0.00,,,0.00,WUHU216HW,2013-01-21 07:45:00,
2013-01-21 01:50:00,24.7,14.9,30.19,North,5,3.4,5.1,66,0.00,,,0.00,WUHU216HW,2013-01-21 07:50:00,
2013-01-21 01:55:00,24.5,14.7,30.19,North,0,3.1,5.1,66,0.00,,,0.00,WUHU216HW,2013-01-21 07:55:00,
2013-01-21 02:00:00,24.5,14.7,30.19,North,0,5.1,5.4,66,0.00,,,0.00,WUHU216HW,2013-01-21 08:00:00,
2013-01-21 02:05:00,24.5,14.7,30.19,NNE,23,4.3,5.4,66,0.00,,,0.00,WUHU216HW,2013-01-21 08:05:00,
2013-01-21 02:10:00,24.3,14.5,30.19,North,0,3.4,7.8,66,0.00,,,0.00,WUHU216HW,2013-01-21 08:10:00,
2013-01-21 02:15:00,24.3,14.5,30.19,North,354,2.5,7.8,66,0.00,,,0.00,WUHU216HW,2013-01-21 08:15:00,
2013-01-21 02:20:00,24.3,14.9,30.19,North,0,2.5,6.7,67,0.00,,,0.00,WUHU216HW,2013-01-21 08:20:00,
2013-01-21 02:25:00,24.1,14.7,30.19,NNE,23,2.0,4.0,67,0.00,,,0.00,WUHU216HW,2013-01-21 08:25:00,
2013-01-21 02:30:00,24.1,14.7,30.20,North,11,2.0,3.4,67,0.00,,,0.00,WUHU216HW,2013-01-21 08:30:00,
2013-01-21 02:35:00,24.1,14.7,30.20,NNW,330,1.0,3.4,67,0.00,,,0.00,WUHU216HW,2013-01-21 08:35:00,
2013-01-21 02:40:00,23.9,14.5,30.20,North,354,1.1,2.7,67,0.00,,,0.00,WUHU216HW,2013-01-21 08:40:00,
2013-01-21 02:45:00,23.8,14.7,30.21,North,0,3.4,3.4,68,0.00,,,0.00,WUHU216HW,2013-01-21 08:45:00,
2013-01-21 02:50:00,23.8,14.7,30.20,North,0,2.7,3.4,68,0.00,,,0.00,WUHU216HW,2013-01-21 08:50:00,
2013-01-21 02:55:00,23.4,14.4,30.21,North,0,2.2,3.4,68,0.00,,,0.00,WUHU216HW,2013-01-21 08:55:00,
2013-01-21 03:00:00,23.4,14.8,30.21,North,0,0.9,2.9,69,0.00,,,0.00,WUHU216HW,2013-01-21 09:00:00,
2013-01-21 03:05:00,23.2,14.6,30.21,North,0,0.5,2.9,69,0.00,,,0.00,WUHU216HW,2013-01-21 09:05:00,
2013-01-21 03:10:00,23.0,14.4,30.21,North,0,1.8,2.5,69,0.00,,,0.00,WUHU216HW,2013-01-21 09:10:00,
2013-01-21 03:15:00,23.0,14.0,30.21,North,0,2.7,4.0,68,0.00,,,0.00,WUHU216HW,2013-01-21 09:15:00,
2013-01-21 03:20:00,22.9,14.2,30.21,North,0,1.3,4.5,69,0.00,,,0.00,WUHU216HW,2013-01-21 09:20:00,
2013-01-21 03:25:00,22.7,14.0,30.21,NNW,347,1.0,4.5,69,0.00,,,0.00,WUHU216HW,2013-01-21 09:25:00,
2013-01-21 03:30:00,22.7,14.0,30.21,North,0,1.1,4.0,69,0.00,,,0.00,WUHU216HW,2013-01-21 09:30:00,
2013-01-21 03:35:00,22.5,13.9,30.21,NNW,339,1.7,3.1,69,0.00,,,0.00,WUHU216HW,2013-01-21 09:35:00,
2013-01-21 03:40:00,22.5,13.9,30.21,North,351,0.9,3.1,69,0.00,,,0.00,WUHU216HW,2013-01-21 09:40:00,
2013-01-21 03:45:00,22.3,14.0,30.22,West,270,1.6,2.9,70,0.00,,,0.00,WUHU216HW,2013-01-21 09:45:00,
2013-01-21 03:50:00,22.1,13.9,30.21,NNE,23,1.8,3.4,70,0.00,,,0.00,WUHU216HW,2013-01-21 09:50:00,
2013-01-21 03:55:00,22.1,13.9,30.21,North,358,1.8,3.4,70,0.00,,,0.00,WUHU216HW,2013-01-21 09:55:00,
2013-01-21 04:00:00,22.0,14.0,30.21,North,3,1.7,3.6,71,0.00,,,0.00,WUHU216HW,2013-01-21 10:00:00,
2013-01-21 04:05:00,22.0,14.0,30.21,NNW,344,0.7,3.6,71,0.00,,,0.00,WUHU216HW,2013-01-21 10:05:00,
2013-01-21 04:10:00,22.0,14.3,30.21,NNW,338,2.0,2.7,72,0.00,,,0.00,WUHU216HW,2013-01-21 10:10:00,
2013-01-21 04:15:00,22.0,14.3,30.21,North,351,1.5,2.7,72,0.00,,,0.00,WUHU216HW,2013-01-21 10:15:00,
2013-01-21 04:20:00,22.0,14.3,30.21,North,0,0.9,2.5,72,0.00,,,0.00,WUHU216HW,2013-01-21 10:20:00,
2013-01-21 04:25:00,22.0,14.3,30.21,NNW,337,1.7,2.5,72,0.00,,,0.00,WUHU216HW,2013-01-21 10:25:00,
2013-01-21 04:30:00,22.0,14.3,30.21,North,352,0.8,2.5,72,0.00,,,0.00,WUHU216HW,2013-01-21 10:30:00,
2013-01-21 04:35:00,22.0,14.3,30.21,NNW,338,0.9,2.2,72,0.00,,,0.00,WUHU216HW,2013-01-21 10:35:00,
2013-01-21 04:40:00,22.0,14.3,30.22,NNW,327,0.8,2.2,72,0.00,,,0.00,WUHU216HW,2013-01-21 10:40:00,
2013-01-21 04:45:00,22.0,14.0,30.21,North,0,1.1,2.2,71,0.00,,,0.00,WUHU216HW,2013-01-21 10:45:00,
2013-01-21 04:50:00,22.0,14.0,30.21,NNW,330,2.2,3.4,71,0.00,,,0.00,WUHU216HW,2013-01-21 10:50:00,
2013-01-21 04:55:00,22.0,14.0,30.21,North,0,3.4,5.1,71,0.00,,,0.00,WUHU216HW,2013-01-21 10:55:00,
2013-01-21 05:00:00,22.0,13.7,30.22,North,352,2.7,5.4,70,0.00,,,0.00,WUHU216HW,2013-01-21 11:00:00,
2013-01-21 05:05:00,22.0,13.7,30.22,North,351,1.9,5.4,70,0.00,,,0.00,WUHU216HW,2013-01-21 11:05:00,
2013-01-21 05:10:00,21.8,13.5,30.22,NNE,23,2.5,3.8,70,0.00,,,0.00,WUHU216HW,2013-01-21 11:10:00,
2013-01-21 05:15:00,21.8,13.5,30.22,North,0,2.0,3.4,70,0.00,,,0.00,WUHU216HW,2013-01-21 11:15:00,
2013-01-21 05:20:00,21.6,13.3,30.22,NNE,23,4.3,4.3,70,0.00,,,0.00,WUHU216HW,2013-01-21 11:20:00,
2013-01-21 05:25:00,21.4,12.8,30.22,North,351,4.0,5.6,69,0.00,,,0.00,WUHU216HW,2013-01-21 11:25:00,
2013-01-21 05:30:00,21.2,13.0,30.22,NNE,23,2.2,5.6,70,0.00,,,0.00,WUHU216HW,2013-01-21 11:30:00,
2013-01-21 05:35:00,21.2,13.0,30.22,North,350,1.4,3.8,70,0.00,,,0.00,WUHU216HW,2013-01-21 11:35:00,
2013-01-21 05:40:00,21.1,12.8,30.22,North,349,1.9,4.0,70,0.00,,,0.00,WUHU216HW,2013-01-21 11:40:00,
2013-01-21 05:45:00,20.9,12.6,30.22,North,2,2.0,4.7,70,0.00,,,0.00,WUHU216HW,2013-01-21 11:45:00,
2013-01-21 05:50:00,20.7,12.7,30.22,North,0,1.1,4.7,71,0.00,,,0.00,WUHU216HW,2013-01-21 11:50:00,
2013-01-21 05:55:00,20.5,12.5,30.22,North,0,2.0,3.8,71,0.00,,,0.00,WUHU216HW,2013-01-21 11:55:00,
2013-01-21 06:00:00,20.5,12.5,30.22,NNW,338,3.4,6.5,71,0.00,,,0.00,WUHU216HW,2013-01-21 12:00:00,
2013-01-21 06:05:00,20.5,12.5,30.22,North,352,3.0,6.5,71,0.00,,,0.00,WUHU216HW,2013-01-21 12:05:00,
2013-01-21 06:10:00,20.5,12.5,30.22,North,358,2.6,5.8,71,0.00,,,0.00,WUHU216HW,2013-01-21 12:10:00,
2013-01-21 06:15:00,20.3,12.3,30.23,North,355,1.9,3.8,71,0.00,,,0.00,WUHU216HW,2013-01-21 12:15:00,
2013-01-21 06:20:00,20.2,12.2,30.22,North,0,2.9,4.7,71,0.00,,,0.00,WUHU216HW,2013-01-21 12:20:00,
2013-01-21 06:25:00,20.2,12.2,30.22,North,358,3.4,4.9,71,0.00,,,0.00,WUHU216HW,2013-01-21 12:25:00,
2013-01-21 06:30:00,20.0,12.0,30.22,North,357,2.1,4.9,71,0.00,,,0.00,WUHU216HW,2013-01-21 12:30:00,
2013-01-21 06:35:00,19.8,11.8,30.22,North,355,1.6,4.0,71,0.00,,,0.00,WUHU216HW,2013-01-21 12:35:00,
2013-01-21 06:40:00,19.8,12.2,30.22,North,0,2.2,6.9,72,0.00,,,0.00,WUHU216HW,2013-01-21 12:40:00,
2013-01-21 06:45:00,19.8,12.2,30.22,North,3,2.2,6.9,72,0.00,,,0.00,WUHU216HW,2013-01-21 12:45:00,
2013-01-21 06:50:00,19.8,12.2,30.22,North,0,3.8,6.3,72,0.00,,,0.00,WUHU216HW,2013-01-21 12:50:00,
2013-01-21 06:55:00,19.6,12.0,30.22,North,0,1.8,4.0,72,0.00,,,0.00,WUHU216HW,2013-01-21 12:55:00,
2013-01-21 07:00:00,19.4,12.1,30.23,North,350,1.6,3.8,73,0.00,,,0.00,WUHU216HW,2013-01-21 13:00:00,
2013-01-21 07:05:00,19.4,12.1,30.23,North,359,1.4,4.5,73,0.00,,,0.00,WUHU216HW,2013-01-21 13:05:00,
2013-01-21 07:10:00,19.3,11.6,30.23,North,0,2.0,4.5,72,0.00,,,0.00,WUHU216HW,2013-01-21 13:10:00,
2013-01-21 07:15:00,19.3,11.9,30.23,NNW,346,1.3,3.1,73,0.00,,,0.00,WUHU216HW,2013-01-21 13:15:00,
2013-01-21 07:20:00,19.3,11.9,30.23,North,356,1.0,2.5,73,0.00,,,0.00,WUHU216HW,2013-01-21 13:20:00,
2013-01-21 07:25:00,19.3,12.3,30.23,NNE,23,2.2,2.2,74,0.00,,,0.00,WUHU216HW,2013-01-21 13:25:00,
2013-01-21 07:30:00,19.4,12.4,30.22,NNW,338,2.0,2.5,74,0.00,,,0.00,WUHU216HW,2013-01-21 13:30:00,
2013-01-21 07:35:00,19.4,12.4,30.23,North,0,1.3,2.5,74,0.00,,,0.00,WUHU216HW,2013-01-21 13:35:00,
2013-01-21 07:40:00,19.4,12.4,30.23,North,355,2.9,4.0,74,0.00,,,0.00,WUHU216HW,2013-01-21 13:40:00,
2013-01-21 07:45:00,19.4,12.4,30.23,North,357,2.2,4.3,74,0.00,,,0.00,WUHU216HW,2013-01-21 13:45:00,
2013-01-21 07:50:00,19.6,12.6,30.23,North,0,1.8,4.3,74,0.00,,,0.00,WUHU216HW,2013-01-21 13:50:00,
2013-01-21 07:55:00,19.6,12.2,30.23,North,355,2.3,3.6,73,0.00,,,0.00,WUHU216HW,2013-01-21 13:55:00,
2013-01-21 08:00:00,19.6,12.2,30.23,North,0,3.1,4.9,73,0.00,,,0.00,WUHU216HW,2013-01-21 14:00:00,
2013-01-21 08:05:00,19.8,12.4,30.23,North,355,2.8,4.9,73,0.00,,,0.00,WUHU216HW,2013-01-21 14:05:00,
2013-01-21 08:10:00,19.8,12.2,30.23,North,357,1.7,5.1,72,0.00,,,0.00,WUHU216HW,2013-01-21 14:10:00,
2013-01-21 08:15:00,19.8,12.2,30.24,North,11,3.8,5.1,72,0.00,,,0.00,WUHU216HW,2013-01-21 14:15:00,
2013-01-21 08:20:00,20.2,12.2,30.24,North,0,1.8,5.1,71,0.00,,,0.00,WUHU216HW,2013-01-21 14:20:00,
2013-01-21 08:25:00,20.3,12.3,30.24,North,352,2.7,4.3,71,0.00,,,0.00,WUHU216HW,2013-01-21 14:25:00,
2013-01-21 08:30:00,20.5,12.2,30.24,North,0,1.6,4.3,70,0.00,,,0.00,WUHU216HW,2013-01-21 14:30:00,
2013-01-21 08:35:00,21.2,12.6,30.25,North,0,1.6,4.3,69,0.00,,,0.00,WUHU216HW,2013-01-21 14:35:00,
2013-01-21 08:40:00,22.0,13.0,30.25,North,0,1.8,4.3,68,0.00,,,0.00,WUHU216HW,2013-01-21 14:40:00,
2013-01-21 08:45:00,22.0,12.2,30.25,North,10,2.6,4.7,66,0.00,,,0.00,WUHU216HW,2013-01-21 14:45:00,
2013-01-21 08:50:00,22.3,13.0,30.25,North,351,1.2,4.7,67,0.00,,,0.00,WUHU216HW,2013-01-21 14:50:00,
2013-01-21 08:55:00,23.2,13.5,30.25,North,0,2.2,4.0,66,0.00,,,0.00,WUHU216HW,2013-01-21 14:55:00,
2013-01-21 09:00:00,24.1,14.3,30.25,North,0,1.8,4.5,66,0.00,,,0.00,WUHU216HW,2013-01-21 15:00:00,
2013-01-21 09:05:00,24.3,13.5,30.25,North,0,2.5,4.5,63,0.00,,,0.00,WUHU216HW,2013-01-21 15:05:00,
2013-01-21 09:10:00,24.8,13.3,30.25,NNW,341,0.8,3.4,61,0.00,,,0.00,WUHU216HW,2013-01-21 15:10:00,
2013-01-21 09:15:00,25.0,12.7,30.25,NNW,347,1.4,5.4,59,0.00,,,0.00,WUHU216HW,2013-01-21 15:15:00,
2013-01-21 09:20:00,25.2,13.3,30.25,North,358,2.0,5.4,60,0.00,,,0.00,WUHU216HW,2013-01-21 15:20:00,
2013-01-21 09:25:00,25.4,13.1,30.25,North,0,2.5,3.4,59,0.00,,,0.00,WUHU216HW,2013-01-21 15:25:00,
2013-01-21 09:30:00,25.7,13.3,30.24,North,0,1.3,2.9,59,0.00,,,0.00,WUHU216HW,2013-01-21 15:30:00,
2013-01-21 09:35:00,26.5,13.6,30.24,North,357,1.4,3.4,58,0.00,,,0.00,WUHU216HW,2013-01-21 15:35:00,
2013-01-21 09:40:00,27.5,14.7,30.24,North,359,2.4,3.4,58,0.00,,,0.00,WUHU216HW,2013-01-21 15:40:00,
2013-01-21 09:45:00,27.9,13.8,30.24,North,0,0.9,2.9,55,0.00,,,0.00,WUHU216HW,2013-01-21 15:45:00,
2013-01-21 09:50:00,28.8,13.8,30.24,North,0,3.1,3.1,53,0.00,,,0.00,WUHU216HW,2013-01-21 15:50:00,
2013-01-21 09:55:00,29.2,13.3,30.24,NW,322,2.2,3.1,51,0.00,,,0.00,WUHU216HW,2013-01-21 15:55:00,
2013-01-21 10:00:00,29.7,14.2,30.25,North,0,2.7,3.1,52,0.00,,,0.00,WUHU216HW,2013-01-21 16:00:00,
2013-01-21 10:05:00,30.8,14.8,30.25,North,9,1.7,3.1,51,0.00,,,0.00,WUHU216HW,2013-01-21 16:05:00,
2013-01-21 10:10:00,30.6,13.1,30.25,NNE,23,3.1,3.4,48,0.00,,,0.00,WUHU216HW,2013-01-21 16:10:00,
2013-01-21 10:15:00,30.2,12.3,30.25,NW,326,2.3,6.5,47,0.00,,,0.00,WUHU216HW,2013-01-21 16:15:00,
2013-01-21 10:20:00,29.9,13.1,30.25,NNE,15,3.8,6.9,49,0.00,,,0.00,WUHU216HW,2013-01-21 16:20:00,
2013-01-21 10:25:00,29.9,13.5,30.25,North,0,4.3,6.9,50,0.00,,,0.00,WUHU216HW,2013-01-21 16:25:00,
2013-01-21 10:30:00,29.9,13.1,30.25,North,0,5.4,5.4,49,0.00,,,0.00,WUHU216HW,2013-01-21 16:30:00,
2013-01-21 10:35:00,30.1,13.2,30.25,NNW,338,2.3,5.4,49,0.00,,,0.00,WUHU216HW,2013-01-21 16:35:00,
2013-01-21 10:40:00,30.2,12.9,30.25,NNW,338,6.3,6.3,48,0.00,,,0.00,WUHU216HW,2013-01-21 16:40:00,
2013-01-21 10:45:00,29.9,13.1,30.25,NNE,23,4.1,6.3,49,0.00,,,0.00,WUHU216HW,2013-01-21 16:45:00,
2013-01-21 10:50:00,30.1,13.7,30.25,North,0,2.3,4.7,50,0.00,,,0.00,WUHU216HW,2013-01-21 16:50:00,
2013-01-21 10:55:00,29.9,13.1,30.25,NNW,338,2.5,5.6,49,0.00,,,0.00,WUHU216HW,2013-01-21 16:55:00,
2013-01-21 11:00:00,30.1,14.1,30.25,North,0,5.8,5.8,51,0.00,,,0.00,WUHU216HW,2013-01-21 17:00:00,
2013-01-21 11:05:00,30.6,14.2,30.25,NNE,23,2.7,5.8,50,0.00,,,0.00,WUHU216HW,2013-01-21 17:05:00,
2013-01-21 11:10:00,30.8,13.9,30.25,NNE,23,4.5,4.9,49,0.00,,,0.00,WUHU216HW,2013-01-21 17:10:00,
2013-01-21 11:15:00,30.8,13.3,30.25,West,270,4.0,4.5,48,0.00,,,0.00,WUHU216HW,2013-01-21 17:15:00,
2013-01-21 11:20:00,30.6,13.7,30.25,WNW,302,4.9,5.8,49,0.00,,,0.00,WUHU216HW,2013-01-21 17:20:00,
2013-01-21 11:25:00,31.0,14.1,30.25,North,9,6.4,7.4,49,0.00,,,0.00,WUHU216HW,2013-01-21 17:25:00,
2013-01-21 11:30:00,31.3,13.9,30.25,North,0,7.6,7.6,48,0.00,,,0.00,WUHU216HW,2013-01-21 17:30:00,
2013-01-21 11:35:00,31.1,13.7,30.25,North,9,5.9,7.6,48,0.00,,,0.00,WUHU216HW,2013-01-21 17:35:00,
2013-01-21 11:40:00,31.0,13.5,30.25,NW,324,4.0,7.2,48,0.00,,,0.00,WUHU216HW,2013-01-21 17:40:00,
2013-01-21 11:45:00,31.3,13.9,30.24,North,0,8.5,8.5,48,0.00,,,0.00,WUHU216HW,2013-01-21 17:45:00,
2013-01-21 11:50:00,31.3,13.9,30.24,NNW,337,4.3,8.5,48,0.00,,,0.00,WUHU216HW,2013-01-21 17:50:00,
2013-01-21 11:55:00,31.9,14.9,30.24,NNW,332,3.6,6.9,49,0.00,,,0.00,WUHU216HW,2013-01-21 17:55:00,
2013-01-21 12:00:00,31.7,14.1,30.24,North,0,4.7,4.7,48,0.00,,,0.00,WUHU216HW,2013-01-21 18:00:00,
2013-01-21 12:05:00,31.5,14.0,30.24,NNE,23,6.5,6.5,48,0.00,,,0.00,WUHU216HW,2013-01-21 18:05:00,
2013-01-21 12:10:00,31.5,14.0,30.24,NNW,338,6.3,8.1,48,0.00,,,0.00,WUHU216HW,2013-01-21 18:10:00,
2013-01-21 12:15:00,31.7,14.7,30.23,North,0,3.1,8.1,49,0.00,,,0.00,WUHU216HW,2013-01-21 18:15:00,
2013-01-21 12:20:00,31.9,14.3,30.23,WNW,293,4.3,4.7,48,0.00,,,0.00,WUHU216HW,2013-01-21 18:20:00,
2013-01-21 12:25:00,31.7,14.1,30.23,NW,315,3.8,4.7,48,0.00,,,0.00,WUHU216HW,2013-01-21 18:25:00,
2013-01-21 12:30:00,31.9,14.3,30.22,West,270,3.1,4.0,48,0.00,,,0.00,WUHU216HW,2013-01-21 18:30:00,
2013-01-21 12:35:00,31.7,14.1,30.22,NNW,348,3.8,6.3,48,0.00,,,0.00,WUHU216HW,2013-01-21 18:35:00,
2013-01-21 12:40:00,32.0,14.5,30.22,North,0,3.3,6.3,48,0.00,,,0.00,WUHU216HW,2013-01-21 18:40:00,
2013-01-21 12:45:00,32.6,14.9,30.22,North,0,6.5,6.5,48,0.00,,,0.00,WUHU216HW,2013-01-21 18:45:00,
2013-01-21 12:50:00,32.6,14.5,30.21,NNW,338,3.4,6.5,47,0.00,,,0.00,WUHU216HW,2013-01-21 18:50:00,
2013-01-21 12:55:00,32.9,14.8,30.22,NNW,338,3.9,6.9,47,0.00,,,0.00,WUHU216HW,2013-01-21 18:55:00,
2013-01-21 13:00:00,32.8,14.1,30.21,NW,315,1.3,6.9,46,0.00,,,0.00,WUHU216HW,2013-01-21 19:00:00,
2013-01-21 13:05:00,32.8,14.6,30.21,NNW,338,3.5,8.9,47,0.00,,,0.00,WUHU216HW,2013-01-21 19:05:00,
2013-01-21 13:10:00,32.8,14.6,30.22,NNW,343,6.1,8.9,47,0.00,,,0.00,WUHU216HW,2013-01-21 19:10:00,
2013-01-21 13:15:00,32.9,15.3,30.21,NNE,23,4.7,8.7,48,0.00,,,0.00,WUHU216HW,2013-01-21 19:15:00,
2013-01-21 13:20:00,32.9,14.8,30.21,NNW,338,3.4,4.7,47,0.00,,,0.00,WUHU216HW,2013-01-21 19:20:00,
2013-01-21 13:25:00,32.9,15.3,30.21,NW,315,4.3,6.3,48,0.00,,,0.00,WUHU216HW,2013-01-21 19:25:00,
2013-01-21 13:30:00,33.1,15.5,30.21,NW,315,2.9,6.3,48,0.00,,,0.00,WUHU216HW,2013-01-21 19:30:00,
2013-01-21 13:35:00,33.1,15.5,30.21,WNW,293,4.5,4.5,48,0.00,,,0.00,WUHU216HW,2013-01-21 19:35:00,
2013-01-21 13:40:00,33.3,15.6,30.21,NW,315,2.7,4.5,48,0.00,,,0.00,WUHU216HW,2013-01-21 19:40:00,
2013-01-21 13:45:00,33.5,15.8,30.20,NW,323,2.4,4.0,48,0.00,,,0.00,WUHU216HW,2013-01-21 19:45:00,
2013-01-21 13:50:00,33.3,15.6,30.20,WNW,301,3.3,4.5,48,0.00,,,0.00,WUHU216HW,2013-01-21 19:50:00,
2013-01-21 13:55:00,33.7,15.9,30.20,NNW,329,3.0,4.5,48,0.00,,,0.00,WUHU216HW,2013-01-21 19:55:00,
2013-01-21 14:00:00,33.8,15.6,30.21,WNW,293,2.9,4.0,47,0.00,,,0.00,WUHU216HW,2013-01-21 20:00:00,
2013-01-21 14:05:00,33.5,15.8,30.21,NNE,15,3.0,4.9,48,0.00,,,0.00,WUHU216HW,2013-01-21 20:05:00,
2013-01-21 14:10:00,33.5,15.8,30.20,NNW,338,4.0,5.1,48,0.00,,,0.00,WUHU216HW,2013-01-21 20:10:00,
2013-01-21 14:15:00,33.7,15.9,30.21,North,3,4.1,6.7,48,0.00,,,0.00,WUHU216HW,2013-01-21 20:15:00,
2013-01-21 14:20:00,33.5,15.8,30.21,North,0,6.9,6.9,48,0.00,,,0.00,WUHU216HW,2013-01-21 20:20:00,
2013-01-21 14:25:00,33.5,15.8,30.21,North,0,3.6,6.9,48,0.00,,,0.00,WUHU216HW,2013-01-21 20:25:00,
2013-01-21 14:30:00,33.8,16.1,30.20,North,353,5.8,7.6,48,0.00,,,0.00,WUHU216HW,2013-01-21 20:30:00,
2013-01-21 14:35:00,33.5,15.8,30.21,North,0,8.5,8.5,48,0.00,,,0.00,WUHU216HW,2013-01-21 20:35:00,
2013-01-21 14:40:00,33.5,15.8,30.21,North,0,4.3,8.5,48,0.00,,,0.00,WUHU216HW,2013-01-21 20:40:00,
2013-01-21 14:45:00,33.5,15.8,30.20,North,0,5.3,7.2,48,0.00,,,0.00,WUHU216HW,2013-01-21 20:45:00,
2013-01-21 14:50:00,33.5,16.3,30.21,North,0,3.8,7.6,49,0.00,,,0.00,WUHU216HW,2013-01-21 20:50:00,
2013-01-21 14:55:00,33.5,16.3,30.21,North,0,3.4,7.6,49,0.00,,,0.00,WUHU216HW,2013-01-21 20:55:00,
2013-01-21 15:00:00,33.3,15.6,30.21,NNW,344,5.2,6.9,48,0.00,,,0.00,WUHU216HW,2013-01-21 21:00:00,
2013-01-21 15:05:00,33.1,15.9,30.20,North,0,3.8,8.7,49,0.00,,,0.00,WUHU216HW,2013-01-21 21:05:00,
2013-01-21 15:10:00,33.3,16.7,30.21,NNW,338,4.9,8.7,50,0.00,,,0.00,WUHU216HW,2013-01-21 21:10:00,
2013-01-21 15:15:00,33.5,16.3,30.20,North,0,8.5,8.5,49,0.00,,,0.00,WUHU216HW,2013-01-21 21:15:00,
2013-01-21 15:20:00,32.8,16.1,30.21,NNW,346,7.4,9.4,50,0.00,,,0.00,WUHU216HW,2013-01-21 21:20:00,
2013-01-21 15:25:00,32.8,16.6,30.21,NNW,345,3.5,9.4,51,0.00,,,0.00,WUHU216HW,2013-01-21 21:25:00,
2013-01-21 15:30:00,32.8,16.6,30.20,NNW,338,4.3,4.5,51,0.00,,,0.00,WUHU216HW,2013-01-21 21:30:00,
2013-01-21 15:35:00,32.6,15.9,30.21,North,0,5.7,6.3,50,0.00,,,0.00,WUHU216HW,2013-01-21 21:35:00,
2013-01-21 15:40:00,32.6,16.8,30.21,North,0,4.0,6.3,52,0.00,,,0.00,WUHU216HW,2013-01-21 21:40:00,
2013-01-21 15:45:00,32.6,16.4,30.21,NW,315,4.9,5.4,51,0.00,,,0.00,WUHU216HW,2013-01-21 21:45:00,
2013-01-21 15:50:00,32.4,16.2,30.21,North,6,4.2,6.3,51,0.00,,,0.00,WUHU216HW,2013-01-21 21:50:00,
2013-01-21 15:55:00,32.4,16.2,30.21,NNW,330,2.8,6.3,51,0.00,,,0.00,WUHU216HW,2013-01-21 21:55:00,
2013-01-21 16:00:00,32.4,16.7,30.21,NNW,338,3.2,6.3,52,0.00,,,0.00,WUHU216HW,2013-01-21 22:00:00,
2013-01-21 16:05:00,32.2,16.5,30.21,NW,326,0.8,4.0,52,0.00,,,0.00,WUHU216HW,2013-01-21 22:05:00,
2013-01-21 16:10:00,32.2,16.5,30.21,NNW,338,1.1,4.0,52,0.00,,,0.00,WUHU216HW,2013-01-21 22:10:00,
2013-01-21 16:15:00,32.0,16.4,30.20,NW,308,2.9,4.0,52,0.00,,,0.00,WUHU216HW,2013-01-21 22:15:00,
2013-01-21 16:20:00,32.0,16.4,30.20,NNW,338,4.7,4.9,52,0.00,,,0.00,WUHU216HW,2013-01-21 22:20:00,
2013-01-21 16:25:00,31.7,16.0,30.20,NNW,338,2.8,4.9,52,0.00,,,0.00,WUHU216HW,2013-01-21 22:25:00,
2013-01-21 16:30:00,31.7,16.0,30.20,North,0,3.1,3.1,52,0.00,,,0.00,WUHU216HW,2013-01-21 22:30:00,
2013-01-21 16:35:00,31.5,15.8,30.20,North,0,4.0,4.0,52,0.00,,,0.00,WUHU216HW,2013-01-21 22:35:00,
2013-01-21 16:40:00,31.7,16.0,30.20,NW,309,1.7,4.0,52,0.00,,,0.00,WUHU216HW,2013-01-21 22:40:00,
2013-01-21 16:45:00,31.5,15.8,30.19,NNE,23,3.1,3.1,52,0.00,,,0.00,WUHU216HW,2013-01-21 22:45:00,
2013-01-21 16:50:00,31.3,15.7,30.19,North,0,3.4,4.0,52,0.00,,,0.00,WUHU216HW,2013-01-21 22:50:00,
2013-01-21 16:55:00,31.1,15.5,30.19,NNW,338,1.1,4.0,52,0.00,,,0.00,WUHU216HW,2013-01-21 22:55:00,
2013-01-21 17:00:00,30.8,15.6,30.19,NW,306,1.5,2.0,53,0.00,,,0.00,WUHU216HW,2013-01-21 23:00:00,
2013-01-21 17:05:00,30.4,15.3,30.19,North,0,2.2,2.2,53,0.00,,,0.00,WUHU216HW,2013-01-21 23:05:00,
2013-01-21 17:10:00,30.1,15.4,30.19,NNE,23,4.0,4.0,54,0.00,,,0.00,WUHU216HW,2013-01-21 23:10:00,
2013-01-21 17:15:00,29.7,15.0,30.19,North,0,3.1,4.0,54,0.00,,,0.00,WUHU216HW,2013-01-21 23:15:00,
2013-01-21 17:20:00,29.3,14.7,30.19,North,0,1.3,3.1,54,0.00,,,0.00,WUHU216HW,2013-01-21 23:20:00,
2013-01-21 17:25:00,29.2,14.6,30.19,North,0,2.8,4.0,54,0.00,,,0.00,WUHU216HW,2013-01-21 23:25:00,
2013-01-21 17:30:00,28.8,14.7,30.19,North,0,3.1,4.0,55,0.00,,,0.00,WUHU216HW,2013-01-21 23:30:00,
2013-01-21 17:35:00,28.4,14.3,30.19,North,0,3.4,3.4,55,0.00,,,0.00,WUHU216HW,2013-01-21 23:35:00,
2013-01-21 17:40:00,28.3,14.1,30.19,North,0,2.9,4.0,55,0.00,,,0.00,WUHU216HW,2013-01-21 23:40:00,
2013-01-21 17:45:00,28.1,14.4,30.19,North,0,3.4,4.0,56,0.00,,,0.00,WUHU216HW,2013-01-21 23:45:00,
2013-01-21 17:50:00,27.7,14.1,30.18,North,350,1.2,3.4,56,0.00,,,0.00,WUHU216HW,2013-01-21 23:50:00,
2013-01-21 17:55:00,27.5,13.9,30.19,NNE,14,1.5,3.1,56,0.00,,,0.00,WUHU216HW,2013-01-21 23:55:00,
2013-01-21 18:00:00,27.4,13.7,30.19,NNW,338,1.8,2.5,56,0.00,,,0.00,WUHU216HW,2013-01-22 00:00:00,
2013-01-21 18:05:00,27.2,13.9,30.18,North,0,0.8,4.3,57,0.00,,,0.00,WUHU216HW,2013-01-22 00:05:00,
2013-01-21 18:10:00,27.0,13.7,30.19,North,0,0.4,4.3,57,0.00,,,0.00,WUHU216HW,2013-01-22 00:10:00,
2013-01-21 18:15:00,26.6,13.3,30.19,North,0,1.8,2.9,57,0.00,,,0.00,WUHU216HW,2013-01-22 00:15:00,
2013-01-21 18:20:00,26.5,13.1,30.19,North,0,1.8,4.0,57,0.00,,,0.00,WUHU216HW,2013-01-22 00:20:00,
2013-01-21 18:25:00,26.3,13.4,30.19,North,0,2.5,4.5,58,0.00,,,0.00,WUHU216HW,2013-01-22 00:25:00,
2013-01-21 18:30:00,25.9,13.2,30.19,North,0,0.9,4.5,58,0.00,,,0.00,WUHU216HW,2013-01-22 00:30:00,
2013-01-21 18:35:00,25.6,12.8,30.19,North,0,2.2,3.4,58,0.00,,,0.00,WUHU216HW,2013-01-22 00:35:00,
2013-01-21 18:40:00,25.4,12.6,30.19,North,0,1.6,3.4,58,0.00,,,0.00,WUHU216HW,2013-01-22 00:40:00,
2013-01-21 18:45:00,25.2,12.4,30.19,North,0,1.6,2.5,58,0.00,,,0.00,WUHU216HW,2013-01-22 00:45:00,
2013-01-21 18:50:00,25.0,12.7,30.19,NNE,23,7.8,7.8,59,0.00,,,0.00,WUHU216HW,2013-01-22 00:50:00,
2013-01-21 18:55:00,24.8,12.5,30.19,North,350,1.8,7.8,59,0.00,,,0.00,WUHU216HW,2013-01-22 00:55:00,
2013-01-21 19:00:00,24.8,12.5,30.19,North,0,3.4,3.4,59,0.00,,,0.00,WUHU216HW,2013-01-22 01:00:00,
2013-01-21 19:05:00,24.5,12.2,30.19,North,0,1.7,3.4,59,0.00,,,0.00,WUHU216HW,2013-01-22 01:05:00,
2013-01-21 19:10:00,24.5,12.2,30.19,North,0,1.6,2.5,59,0.00,,,0.00,WUHU216HW,2013-01-22 01:10:00,
2013-01-21 19:15:00,24.3,12.0,30.19,North,0,1.0,2.5,59,0.00,,,0.00,WUHU216HW,2013-01-22 01:15:00,
2013-01-21 19:20:00,24.1,11.8,30.19,NNE,23,4.0,4.0,59,0.00,,,0.00,WUHU216HW,2013-01-22 01:20:00,
2013-01-21 19:25:00,24.1,11.8,30.19,North,0,1.3,4.0,59,0.00,,,0.00,WUHU216HW,2013-01-22 01:25:00,
2013-01-21 19:30:00,23.9,12.1,30.19,North,0,0.4,2.9,60,0.00,,,0.00,WUHU216HW,2013-01-22 01:30:00,
2013-01-21 19:35:00,23.8,11.9,30.19,North,0,0.7,2.9,60,0.00,,,0.00,WUHU216HW,2013-01-22 01:35:00,
2013-01-21 19:40:00,23.8,11.9,30.20,North,0,1.0,1.8,60,0.00,,,0.00,WUHU216HW,2013-01-22 01:40:00,
2013-01-21 19:45:00,23.4,11.5,30.20,North,8,1.5,2.0,60,0.00,,,0.00,WUHU216HW,2013-01-22 01:45:00,
2013-01-21 19:50:00,23.4,11.5,30.21,North,0,1.2,2.0,60,0.00,,,0.00,WUHU216HW,2013-01-22 01:50:00,
2013-01-21 19:55:00,23.2,11.7,30.20,North,0,0.9,3.6,61,0.00,,,0.00,WUHU216HW,2013-01-22 01:55:00,
2013-01-21 20:00:00,23.2,11.7,30.20,North,0,1.0,3.6,61,0.00,,,0.00,WUHU216HW,2013-01-22 02:00:00,
2013-01-21 20:05:00,23.0,11.5,30.20,North,0,1.3,1.3,61,0.00,,,0.00,WUHU216HW,2013-01-22 02:05:00,
2013-01-21 20:10:00,22.9,11.3,30.20,North,0,1.5,1.8,61,0.00,,,0.00,WUHU216HW,2013-01-22 02:10:00,
2013-01-21 20:15:00,22.9,11.3,30.20,North,0,1.1,1.8,61,0.00,,,0.00,WUHU216HW,2013-01-22 02:15:00,
2013-01-21 20:20:00,22.7,11.2,30.20,North,0,0.7,2.5,61,0.00,,,0.00,WUHU216HW,2013-01-22 02:20:00,
2013-01-21 20:25:00,22.7,11.2,30.21,North,0,1.6,2.5,61,0.00,,,0.00,WUHU216HW,2013-01-22 02:25:00,
2013-01-21 20:30:00,22.7,11.2,30.21,North,0,0.4,1.8,61,0.00,,,0.00,WUHU216HW,2013-01-22 02:30:00,
2013-01-21 20:35:00,22.5,11.1,30.21,North,0,0.4,1.3,61,0.00,,,0.00,WUHU216HW,2013-01-22 02:35:00,
2013-01-21 20:40:00,22.3,10.9,30.21,North,0,0.4,0.4,61,0.00,,,0.00,WUHU216HW,2013-01-22 02:40:00,
2013-01-21 20:45:00,22.3,10.9,30.21,North,0,0.0,0.4,61,0.00,,,0.00,WUHU216HW,2013-01-22 02:45:00,
2013-01-21 20:50:00,22.1,10.7,30.21,North,0,0.0,0.2,61,0.00,,,0.00,WUHU216HW,2013-01-22 02:50:00,
2013-01-21 20:55:00,22.0,10.5,30.21,North,0,0.0,0.2,61,0.00,,,0.00,WUHU216HW,2013-01-22 02:55:00,
2013-01-21 21:00:00,22.0,10.5,30.21,North,0,0.0,0.0,61,0.00,,,0.00,WUHU216HW,2013-01-22 03:00:00,
2013-01-21 21:05:00,21.8,10.4,30.21,North,0,0.0,0.0,61,0.00,,,0.00,WUHU216HW,2013-01-22 03:05:00,
2013-01-21 21:10:00,21.8,10.4,30.21,North,0,0.0,0.0,61,0.00,,,0.00,WUHU216HW,2013-01-22 03:10:00,
2013-01-21 21:15:00,21.6,10.2,30.21,North,0,0.0,0.0,61,0.00,,,0.00,WUHU216HW,2013-01-22 03:15:00,
2013-01-21 21:20:00,21.4,10.1,30.21,North,0,0.0,0.0,61,0.00,,,0.00,WUHU216HW,2013-01-22 03:20:00,
2013-01-21 21:25:00,21.4,10.4,30.20,North,0,0.0,0.0,62,0.00,,,0.00,WUHU216HW,2013-01-22 03:25:00,
2013-01-21 21:30:00,21.2,10.3,30.20,North,0,0.0,0.0,62,0.00,,,0.00,WUHU216HW,2013-01-22 03:30:00,
2013-01-21 21:35:00,21.2,10.3,30.21,North,0,0.0,0.0,62,0.00,,,0.00,WUHU216HW,2013-01-22 03:35:00,
2013-01-21 21:40:00,21.2,10.3,30.20,North,0,0.0,0.0,62,0.00,,,0.00,WUHU216HW,2013-01-22 03:40:00,
2013-01-21 21:45:00,21.2,9.9,30.21,North,0,0.0,0.0,61,0.00,,,0.00,WUHU216HW,2013-01-22 03:45:00,
2013-01-21 21:50:00,21.2,10.3,30.21,North,0,0.0,0.0,62,0.00,,,0.00,WUHU216HW,2013-01-22 03:50:00,
2013-01-21 21:55:00,21.1,10.1,30.21,North,0,0.0,0.0,62,0.00,,,0.00,WUHU216HW,2013-01-22 03:55:00,
2013-01-21 22:00:00,20.9,9.9,30.20,North,0,0.0,0.0,62,0.00,,,0.00,WUHU216HW,2013-01-22 04:00:00,
2013-01-21 22:05:00,21.1,10.4,30.21,North,0,0.0,0.0,63,0.00,,,0.00,WUHU216HW,2013-01-22 04:05:00,
2013-01-21 22:10:00,21.2,10.5,30.21,North,0,0.0,0.0,63,0.00,,,0.00,WUHU216HW,2013-01-22 04:10:00,
2013-01-21 22:15:00,21.4,11.1,30.20,North,0,0.0,0.0,64,0.00,,,0.00,WUHU216HW,2013-01-22 04:15:00,
2013-01-21 22:20:00,21.8,11.8,30.21,North,0,0.0,0.0,65,0.00,,,0.00,WUHU216HW,2013-01-22 04:20:00,
2013-01-21 22:25:00,22.0,12.0,30.21,North,0,0.0,0.0,65,0.00,,,0.00,WUHU216HW,2013-01-22 04:25:00,
2013-01-21 22:30:00,22.0,12.0,30.21,North,0,0.0,0.2,65,0.00,,,0.00,WUHU216HW,2013-01-22 04:30:00,
2013-01-21 22:35:00,22.1,11.8,30.21,North,0,0.2,0.2,64,0.00,,,0.00,WUHU216HW,2013-01-22 04:35:00,
2013-01-21 22:40:00,22.1,12.1,30.21,North,0,0.2,0.4,65,0.00,,,0.00,WUHU216HW,2013-01-22 04:40:00,
2013-01-21 22:45:00,22.3,12.6,30.21,North,0,0.2,0.4,66,0.00,,,0.00,WUHU216HW,2013-01-22 04:45:00,
2013-01-21 22:50:00,22.3,12.6,30.21,North,0,0.1,0.4,66,0.00,,,0.00,WUHU216HW,2013-01-22 04:50:00,
2013-01-21 22:55:00,22.3,12.6,30.22,North,0,0.2,0.4,66,0.00,,,0.00,WUHU216HW,2013-01-22 04:55:00,
2013-01-21 23:00:00,22.5,12.8,30.21,North,0,0.0,0.4,66,0.00,,,0.00,WUHU216HW,2013-01-22 05:00:00,
2013-01-21 23:06:00,22.5,12.8,30.21,North,0,0.2,0.4,66,0.00,,,0.00,WUHU216HW,2013-01-22 05:06:00,
2013-01-21 23:11:00,22.7,13.0,30.22,North,0,0.9,1.3,66,0.00,,,0.00,WUHU216HW,2013-01-22 05:11:00,
2013-01-21 23:16:00,22.7,13.0,30.21,NNW,338,0.4,1.3,66,0.00,,,0.00,WUHU216HW,2013-01-22 05:16:00,
2013-01-21 23:21:00,22.7,13.0,30.21,North,0,0.4,1.3,66,0.00,,,0.00,WUHU216HW,2013-01-22 05:21:00,
2013-01-21 23:26:00,22.7,13.0,30.20,NNW,342,0.6,1.3,66,0.00,,,0.00,WUHU216HW,2013-01-22 05:26:00,
2013-01-21 23:31:00,22.7,13.0,30.21,North,0,0.7,1.1,66,0.00,,,0.00,WUHU216HW,2013-01-22 05:31:00,
2013-01-21 23:36:00,22.7,13.0,30.20,North,0,0.9,1.1,66,0.00,,,0.00,WUHU216HW,2013-01-22 05:36:00,
2013-01-21 23:41:00,22.9,13.1,30.20,North,7,0.6,1.1,66,0.00,,,0.00,WUHU216HW,2013-01-22 05:41:00,
2013-01-21 23:46:00,22.9,13.1,30.20,NNE,23,1.1,1.1,66,0.00,,,0.00,WUHU216HW,2013-01-22 05:46:00,
2013-01-21 23:51:00,22.9,12.8,30.20,North,0,0.4,1.1,65,0.00,,,0.00,WUHU216HW,2013-01-22 05:51:00,
2013-01-21 23:56:00,23.0,13.0,30.20,North,0,0.7,0.9,65,0.00,,,0.00,WUHU216HW,2013-01-22 05:56:00,